AirNav   Everest Fuels
 
 651 users online  

4V8 Deerfield Valley Regional Airport
West Dover, Vermont, USA

GOING TO WEST DOVER?


FAA INFORMATION EFFECTIVE 15 JULY 2021

Location

FAA Identifier: 4V8
Lat/Long: 42-55-37.6880N 072-51-56.3530W
42-55.628133N 072-51.939217W
42.9271356,-72.8656536
(estimated)
Elevation: 1953 ft. / 595.3 m (surveyed)
Variation: 15W (1985)
From city: 1 mile SW of WEST DOVER, VT
Time zone: UTC -4 (UTC -5 during Standard Time)
Zip code: 05356

Airport Operations

Airport use: Open to the public
Activation date: 11/1982
Control tower: no
ARTCC: BOSTON CENTER
FSS: BURLINGTON FLIGHT SERVICE STATION
NOTAMs facility: BTV (NOTAM-D service available)
Attendance: UNATTND
Wind indicator: lighted
Segmented circle: no
Lights: SS-SR
Landing fee: yes

Airport Communications

CTAF/UNICOM: 122.8
WX ASOS at DDH (17 nm W): 135.925 (802-442-6059)
WX ASOS at AQW (19 nm SW): 134.775 (413-664-6658)
  • APCH/DEP SVC PRVDD BY BOSTON ARTCC ON FREQS 123.75/338.2 (GARDNER RCAG).

Nearby radio navigation aids

VOR radial/distance  VOR name  Freq  Var
CAMr115/21.4CAMBRIDGE VOR/DME115.0014W
EENr302/26.5KEENE VORTAC109.4014W
CTRr019/38.3CHESTER VOR/DME115.1013W

 
NDB name  Hdg/Dist  Freq  Var  ID
CLAREMONT235/34.223316WCNH -.-. -. ....

Airport Services

Parking: hangars and tiedowns

Runway Information

Runway 1/19

Dimensions: 2650 x 75 ft. / 808 x 23 m
Surface: asphalt, in excellent condition
Runway edge lights: medium intensity
NSTD ALNMT.
RUNWAY 1  RUNWAY 19
Latitude: 42-55.413750N42-55.843583N
Longitude: 072-51.887917W072-51.989667W
Elevation: 1948.0 ft.1950.0 ft.
Traffic pattern: leftleft
Runway heading: 005 magnetic, 350 true185 magnetic, 170 true
Markings: nonprecision, in good conditionbasic, in good condition
Touchdown point: yes, no lightsno, no lights
Obstructions: 61 ft. trees, 662 ft. from runway, 54 ft. right of centerline, 7:1 slope to clear29 ft. trees, 945 ft. from runway, 160 ft. left of centerline, 25:1 slope to clear

Airport Ownership and Management from official FAA records

Ownership: Privately-owned
Owner: DEERFIELD VALLEY REG AIRPORT, LLC
HERMITAGE REALTY ESTATE HOLDING CO., 25 HANDLE ROAD
WEST DOVER, VT 05356
Phone (802) 490-0775
Manager: JIM BARNES
P.O. BOX 2210, 69 AIRPORT ROAD
WEST DOVER, VT 05356
Phone (802) 490-0775
GTOOLE@GMAIL.COM

Airport Operational Statistics

Aircraft based on the field: 7
Single engine airplanes: 5
Multi engine airplanes: 2
    
Aircraft operations: avg 59/week *
58% local general aviation
42% transient general aviation
* for 12-month period ending 15 September 2015

Additional Remarks

FOR CD CTC BOSTON ARTCC AT 603-879-6859.

Instrument Procedures

NOTE: All procedures below are presented as PDF files. If you need a reader for these files, you should download the free Adobe Reader.

NOT FOR NAVIGATION. Please procure official charts for flight.
FAA instrument procedures published for use from 15 July 2021 at 0901Z to 12 August 2021 at 0900z.

 
IAPs - Instrument Approach Procedures
RNAV (GPS) RWY 01 **CHANGED**   download (189KB)
NOTE: Special Take-Off Minimums/Departure Procedures apply   download (180KB)

Other nearby airports with instrument procedures:

KDDH - William H Morse State Airport (17 nm W)
KAQW - Harriman-and-West Airport (19 nm SW)
0B5 - Turners Falls Airport (25 nm SE)
KEEN - Dillant-Hopkins Airport (26 nm E)
KVSF - Hartness State Airport (Springfield) (29 nm NE)
 
Loc | Ops | Rwys | IFR | FBO | Links
Com | Nav | Svcs | Stats | Notes
Area around 4V8 (Deerfield Valley Regional Airport)
 
Road maps at: MapQuest Bing Google
 
Aerial photo
WARNING: Photo may not be current or correct
Aerial photo of 4V8 (Deerfield Valley Regional Airport)
Photo by Guy Rouelle
Photo taken 23-May-2015
looking north.

Do you have a better or more recent aerial photo of Deerfield Valley Regional Airport that you would like to share? If so, please send us your photo.

 
Sectional chart

 
Airport distance calculator
Flying to Deerfield Valley Regional Airport? Find the distance to fly.

From to 4V8

Sunrise and sunset
Times for 02-Aug-2021
 Local
(UTC-4)
 Zulu
(UTC)
Morning civil twilight05:1209:12
Sunrise05:4409:44
Sunset20:1100:11
Evening civil twilight20:4300:43

Current date and time
Zulu (UTC)  02-Aug-2021 11:29:36
Local (UTC-4)  02-Aug-2021 07:29:36
 
METAR
KDDH 
17nm W 
021054Z AUTO 00000KT 10SM OVC007 16/15 A2988 RMK AO2 SLP116 T01560150
KAQW 
19nm SW 
021118Z AUTO 28007KT 10SM FEW019 SCT028 18/14 A2988 RMK AO2 T01780139
KEEN 
26nm E 
021119Z AUTO 00000KT 6SM BR OVC001 16/16 A2986 RMK AO2 $
KVSF 
30nm NE 
021054Z AUTO 00000KT 10SM FEW025 BKN041 BKN080 16/16 A2986 RMK AO2 RAE0955 SLP110 P0000 T01610156
KORE 
34nm SE 
021108Z AUTO 00000KT 10SM FEW001 16/16 A2986 RMK AO2 T01610156
TAF
KPSF 
35nm SW 
020926Z 0209/0306 00000KT 6SM BR VCSH FEW015 OVC040 FM021300 31006KT P6SM SCT010 BKN025 FM021600 32008KT P6SM SCT040 FM030500 30004KT P6SM FEW250
KRUT 
36nm N 
020847Z 0209/0306 VRB03KT 6SM BR VCSH OVC006 FM021200 VRB04KT P6SM VCSH OVC015 FM021500 32007KT P6SM BKN040 FM030100 14004KT P6SM FEW150
KGFL 
41nm NW 
020915Z 0209/0306 00000KT 2SM BR VCSH FEW003 BKN010 OVC040 TEMPO 0209/0211 1/2SM FG VV002 FM021100 00000KT 6SM BR VCSH FEW030 SCT040 FM021400 35005KT P6SM FEW030 SCT050 FM030100 00000KT P6SM FEW250
KALB 
42nm W 
020914Z 0209/0306 00000KT P6SM FEW015 SCT030 TEMPO 0209/0210 BKN015 BKN025 FM021200 31005KT P6SM BKN030 FM021300 31006KT P6SM FEW025 SCT040 FM022200 29005KT P6SM FEW050 FEW250
NOTAMs
Click for the latest NOTAMs
NOTAMs are issued by the DoD/FAA and will open in a separate window not controlled by AirNav.

 

 
 

Would you like to see your business listed on this page?

 If your business provides an interesting product or service to pilots, flight crews, aircraft, or users of the Deerfield Valley Regional Airport, you should consider listing it here.  To start the listing process, click on the button below
 
Add a business
 

Other Pages about Deerfield Valley Regional Airport

deerfieldvalleyairport.com
vtrans.vermont.gov/...
 
Update a link
 
Copyright © AirNav, LLC. All rights reserved. Privacy Policy  Contact